User: anonymous   Login
Location: Corcelles
(46.1547°N, 4.7234°E)
Time: 20:16:56
(UTC+00:00)
Language:

BREEZE-M DEB (TANK) - Orbit

View from above orbital plane
View from above orbital plane
View from above satellite
View from above satellite

Ground track
Ground track

The orbit data is extracted from the following two-line orbital elements,

1 37604U 11021C   20268.81373995  .00002387  00000-0  46982-3 0  9990
2 37604  49.2113 157.8937 6027522 119.3269 313.3815  4.00037307134137
Epoch (UTC): 24 September 2020 19:31:47
Eccentricity: 0.6027522
inclination: 49.2113°
perigee height: 280 km
apogee height: 20487 km
right ascension of ascending node: 157.8937°
argument of perigee: 119.3269°
revolutions per day: 4.00037307
mean anomaly at epoch: 313.3815°
orbit number at epoch: 13413

The dashed part of the orbit path shows where the satellite is in the earth's shadow,  

DLR